|
NORAD ID: 10961 Int'l Code: 1978-063A
Perigee: 767.8 km
Apogee: 789.9 km
Inclination: 74.1 °
Period: 100.3 minutes
Semi major axis: 7149 km
Launch date: June 21, 1978
Source: Commonwealth of Independent States (former USSR) (CIS)
Two Line Element Set (TLE):
1 10961U 78063A 13142.49835653 .00000101 00000-0 43550-4 0 5220
2 10961 074.0759 198.9460 0015473 134.5001 325.4584 14.36014992827694
Source:
NASA's NSSDC Master Catalog entry for COSMOS 1023
|